Hourly Data Report for May 21, 2012

All times are specified in Local Standard Time (LST). Add 1 hour to adjust for Daylight Saving Time where and when it is observed.

YARMOUTH A
NOVA SCOTIA

43°49'37.000" N
66°05'17.000" W
42.90 m
8206495
71603
YQI

Download Data

Hourly Data (May 2012)
Hourly Data Report for May 21, 2012
Temp Definition
°C
Dew Point Temp Definition
°C
Rel Hum Definition
%
Wind Dir Definition
10's deg

Wind Spd Definition
km/h
Visibility Definition
km
Stn Press Definition
kPa
Hmdx Definition


Wind Chill Definition


Weather Definition


TIME
00:00 Legend Double Dagger 9.9 8.0 88 16 8 10.0 102.21     LegendNANA
01:00 Legend Double Dagger 10.2 8.2 87 14 6 10.0 102.20     LegendNANA
02:00 Legend Double Dagger 10.1 8.4 89 15 6 10.0 102.22     Clear
03:00 Legend Double Dagger 9.7 7.7 87 10 7 10.0 102.25     LegendNANA
04:00 Legend Double Dagger 9.5 8.1 91 9 9 10.0 102.23     LegendNANA
05:00 Legend Double Dagger 8.8 8.1 95 9 8 10.0 102.26     Mainly Clear
06:00 Legend Double Dagger 10.1 8.6 90 11 8 10.0 102.26     LegendNANA
07:00 Legend Double Dagger 13.1 9.4 78 14 10 10.0 102.29     LegendNANA
08:00 Legend Double Dagger 16.4 7.9 57 15 12 10.0 102.31     Mainly Clear
09:00 Legend Double Dagger 17.8 11.0 64 18 17 10.0 102.33     LegendNANA
10:00 Legend Double Dagger 18.7 13.0 69 17 18 10.0 102.31     LegendNANA
11:00 Legend Double Dagger 19.5 12.6 64 18 19 10.0 102.29     Mostly Cloudy
12:00 Legend Double Dagger 20.2 12.3 60 19 17 10.0 102.24     LegendNANA
13:00 Legend Double Dagger 20.2 11.0 55 19 21 10.0 102.23     LegendNANA
14:00 Legend Double Dagger 20.6 10.8 53 20 21 10.0 102.16     Cloudy
15:00 Legend Double Dagger 20.6 11.4 55 20 17 10.0 102.11     LegendNANA
16:00 Legend Double Dagger 20.2 11.8 58 18 19 10.0 102.03     LegendNANA
17:00 Legend Double Dagger 19.2 10.6 57 16 21 10.0 101.99     Cloudy
18:00 Legend Double Dagger 17.5 13.7 78 17 17 10.0 101.97     LegendNANA
19:00 Legend Double Dagger 16.8 14.3 85 17 13 10.0 101.93     LegendNANA
20:00 Legend Double Dagger 15.7 13.9 89 16 13 10.0 101.91     Cloudy
21:00 Legend Double Dagger 14.7 13.4 92 15 11 10.0 101.86     LegendNANA
22:00 Legend Double Dagger 14.4 13.3 93 12 9 10.0 101.82     LegendNANA
23:00 Legend Double Dagger 14.1 13.0 93 12 12 10.0 101.72     Cloudy

Notes on Data Quality.

Legend

  • E = Estimated
  • M = Missing
  • NA = Not Available
  • ‡ = Partner data that is not subject to review by the National Climate Archives
Date modified: